Location: Aiyekoto
(8.4333°N, 4.3667°E)
Time: 23:10:17
(UTC+00:00)

Centaur D-1A AC-31 - Pass Details

Date: 07 October 2020
Orbit: 553 x 36388 km, 27.2° (Epoch: 24 October)

Event Time Altitude Azimuth Distance (km) Brightness Sun altitude
Rises 21:14:26 0° 295° (WNW) 20,530 9.2 -56.3°
Reaches altitude 10° 21:51:18 10° 288° (WNW) 10,572 7.5 -65.4°
Enters shadow 22:08:28 26° 265° (W) 4,200 5.2 -69.6°
